Location: Nairn
(57.5833°N, 3.8667°W)
Time: 02:35:34
(UTC+00:00)

Transit 2A - Pass Details

Date: 02 December 2020
Orbit: 598 x 960 km, 66.7° (Epoch: 20 January)

Event Time Altitude Azimuth Distance (km) Brightness Sun altitude
Rises 20:35:52 0° 277° (W) 3,548 10.3 -38.4°
Reaches altitude 10° 20:38:44 10° 287° (WNW) 2,560 9.4 -38.8°
Enters shadow 20:41:55 26° 312° (NW) 1,637 8.1 -39.2°
